QPF
0.23 0.61 0.50 0.56 0.28 0.23 0.32 0.55 0.39 0.10 0.16 0.02 0.00 0.00 0.00 0.00 0.01 0.01 0.01 0.01 0.01 0.01 0.02 0.03 0.04 0.03 0.01 0.01 0.01 0.01 0.00 0.00 0.00 0.00 0.00 0.00 0.00 0.00 0.00 0.00 0.00 0.00
0.28 0.59 0.54 0.36 0.22 0.07 0.11 0.29 0.36 0.25 0.11 0.04 0.00 0.00 0.01 0.01 0.01 0.01 0.01 0.01 0.01 0.01 0.01 0.02 0.02 0.01 0.02 0.00 0.01 0.01 0.00 0.00 0.00 0.01 0.00 0.00 0.00 0.00 0.00 0.00 0.00 0.00
0.49 0.30 0.49 0.44 0.30 0.27 0.12 0.13 0.13 0.13 0.13 0.11 0.07 0.03 0.01 0.01 0.01 0.01 0.01 0.01 0.01 0.00 0.01 0.02 0.01 0.01 0.01 0.00 0.01 0.00 0.01 0.00 0.00 0.00 0.00 0.00 0.00 0.00 0.00 0.00 0.00 0.00
0.33 0.30 0.41 0.60 0.39 0.48 0.63 0.53 0.33 0.16 0.31 0.21 0.11 0.14 0.06 0.04 0.01 0.01 0.02 0.04 0.02 0.01 0.01 0.01 0.01 0.01 0.01 0.00 0.00 0.00 0.01 0.00 0.00 0.00 0.01 0.00 0.00 0.00 0.00 0.00 0.00 0.00
0.24 0.28 0.29 0.39 0.44 0.33 0.23 0.06 0.17 0.17 0.10 0.04 0.08 0.07 0.06 0.03 0.05 0.11 0.17 0.06 0.02 0.02 0.02 0.02 0.02 0.01 0.01 0.01 0.01 0.00 0.01 0.01 0.00 0.00 0.01 0.00 0.00 0.00 0.00 0.00 0.00 0.00
0.47 0.46 0.42 0.49 0.21 0.24 0.31 0.20 0.17 0.12 0.03 0.03 0.04 0.12 0.04 0.05 0.04 0.09 0.16 0.14 0.06 0.01 0.01 0.01 0.01 0.01 0.10 0.01 0.01 0.01 0.01 0.01 0.01 0.00 0.00 0.01 0.00 0.00 0.00 0.00 0.00 0.00
0.36 0.78 0.51 0.46 0.43 0.16 0.32 0.41 0.47 0.22 0.17 0.18 0.29 0.18 0.14 0.12 0.10 0.11 0.11 0.11 0.10 0.02 0.01 0.02 0.03 0.03 0.01 0.01 0.01 0.01 0.00 0.01 0.01 0.01 0.00 0.01 0.01 0.00 0.00 0.00 0.00 0.00
0.29 0.83 0.74 0.50 0.39 0.40 0.42 0.43 0.29 0.25 0.16 0.35 0.15 0.13 0.16 0.14 0.09 0.01 0.04 0.04 0.04 0.02 0.02 0.02 0.03 0.13 0.38 0.17 0.12 0.01 0.01 0.02 0.01 0.02 0.01 0.01 0.01 0.00 0.00 0.00 0.00 0.00
1.07 0.66 0.23 0.54 0.51 0.32 0.35 0.36 0.36 0.24 0.14 0.24 0.19 0.19 0.08 0.05 0.01 0.01 0.01 0.02 0.02 0.02 0.03 0.04 0.07 0.28 0.16 0.18 0.11 0.10 0.09 0.05 0.02 0.01 0.01 0.02 0.01 0.00 0.00 0.00 0.00 0.00
0.26 0.33 0.13 0.20 0.29 0.25 0.25 0.28 0.20 0.14 0.07 0.13 0.16 0.11 0.03 0.02 0.04 0.00 0.01 0.02 0.02 0.02 0.02 0.03 0.03 0.03 0.17 0.10 0.12 0.08 0.10 0.03 0.02 0.01 0.01 0.01 0.01 0.00 0.00 0.00 0.00 0.00
0.18 0.15 0.05 0.05 0.05 0.08 0.07 0.10 0.13 0.11 0.06 0.03 0.07 0.09 0.02 0.01 0.03 0.00 0.01 0.01 0.01 0.01 0.02 0.03 0.06 0.09 0.12 0.02 0.10 0.08 0.06 0.07 0.09 0.02 0.03 0.01 0.01 0.02 0.03 0.01 0.01 0.01
0.13 0.07 0.04 0.03 0.02 0.02 0.02 0.03 0.03 0.03 0.02 0.02 0.02 0.03 0.02 0.02 0.03 0.00 0.01 0.01 0.01 0.01 0.01 0.02 0.02 0.03 0.03 0.02 0.03 0.13 0.05 0.13 0.05 0.01 0.03 0.04 0.01 0.01 0.00 0.00 0.00 0.00
0.03 0.01 0.01 0.02 0.05 0.11 0.06 0.03 0.02 0.04 0.03 0.02 0.03 0.03 0.03 0.04 0.00 0.00 0.01 0.01 0.02 0.02 0.01 0.02 0.02 0.02 0.03 0.03 0.03 0.04 0.11 0.04 0.06 0.03 0.02 0.01 0.03 0.02 0.02 0.01 0.01 0.01
0.02 0.02 0.02 0.03 0.01 0.02 0.05 0.03 0.06 0.02 0.02 0.04 0.06 0.05 0.01 0.01 0.01 0.01 0.01 0.01 0.01 0.01 0.02 0.03 0.04 0.03 0.04 0.04 0.04 0.03 0.03 0.02 0.01 0.01 0.01 0.01 0.01 0.01 0.02 0.02 0.01 0.04
0.04 0.04 0.05 0.03 0.03 0.03 0.04 0.03 0.04 0.05 0.03 0.03 0.03 0.07 0.11 0.03 0.02 0.01 0.01 0.01 0.01 0.01 0.01 0.01 0.01 0.02 0.01 0.03 0.05 0.04 0.01 0.01 0.01 0.00 0.02 0.00 0.00 0.00 0.00 0.00 0.01 0.10
0.03 0.02 0.02 0.03 0.03 0.04 0.03 0.03 0.02 0.02 0.02 0.03 0.02 0.03 0.02 0.02 0.02 0.01 0.01 0.01 0.02 0.02 0.01 0.01 0.01 0.00 0.03 0.00 0.00 0.06 0.09 0.09 0.05 0.08 0.10 0.02 0.08 0.05 0.05 0.13 0.02 0.01
0.02 0.02 0.02 0.02 0.03 0.02 0.03 0.03 0.02 0.03 0.02 0.01 0.01 0.01 0.01 0.01 0.01 0.02 0.04 0.02 0.01 0.02 0.01 0.00 0.00 0.07 0.01 0.00 0.00 0.00 0.01 0.02 0.03 0.05 0.07 0.08 0.07 0.10 0.14 0.11 0.18 0.10
0.01 0.02 0.02 0.03 0.04 0.06 0.04 0.03 0.03 0.03 0.03 0.03 0.03 0.02 0.03 0.03 0.04 0.03 0.02 0.02 0.03 0.01 0.01 0.01 0.06 0.01 0.00 0.00 0.00 0.00 0.00 0.01 0.05 0.03 0.09 0.08 0.05 0.04 0.04 0.06 0.06 0.13
0.02 0.03 0.02 0.02 0.04 0.05 0.03 0.02 0.02 0.02 0.02 0.01 0.00 0.00 0.00 0.01 0.01 0.01 0.01 0.02 0.02 0.04 0.03 0.05 0.05 0.01 0.00 0.00 0.00 0.00 0.01 0.03 0.08 0.07 0.04 0.06 0.08 0.07 0.06 0.03 0.04 0.04
0.02 0.02 0.01 0.02 0.01 0.01 0.01 0.01 0.01 0.01 0.00 0.00 0.00 0.00 0.00 0.00 0.00 0.00 0.00 0.01 0.00 0.01 0.03 0.05 0.03 0.00 0.00 0.00 0.00 0.00 0.00 0.00 0.06 0.08 0.04 0.04 0.04 0.05 0.06 0.06 0.04 0.02
0.02 0.02 0.02 0.01 0.01 0.01 0.01 0.01 0.01 0.00 0.00 0.00 0.00 0.00 0.00 0.00 0.00 0.00 0.00 0.00 0.00 0.01 0.01 0.02 0.00 0.00 0.00 0.00 0.00 0.00 0.00 0.00 0.03 0.07 0.05 0.04 0.04 0.03 0.02 0.02 0.08 0.07
0.01 0.01 0.01 0.01 0.01 0.01 0.01 0.01 0.00 0.00 0.00 0.00 0.00 0.00 0.00 0.00 0.00 0.00 0.01 0.01 0.01 0.01 0.01 0.02 0.00 0.00 0.00 0.00 0.00 0.00 0.00 0.00 0.01 0.03 0.02 0.02 0.02 0.03 0.03 0.04 0.03 0.02
0.01 0.01 0.01 0.01 0.01 0.01 0.01 0.01 0.01 0.00 0.00 0.00 0.00 0.00 0.01 0.00 0.01 0.00 0.02 0.02 0.02 0.02 0.02 0.03 0.00 0.00 0.00 0.00 0.00 0.00 0.00 0.00 0.00 0.01 0.01 0.01 0.01 0.01 0.01 0.01 0.01 0.02
0.01 0.01 0.01 0.01 0.01 0.01 0.00 0.01 0.00 0.00 0.00 0.01 0.01 0.01 0.01 0.01 0.01 0.02 0.02 0.02 0.03 0.02 0.01 0.03 0.01 0.00 0.00 0.00 0.00 0.00 0.00 0.00 0.00 0.01 0.00 0.01 0.01 0.01 0.01 0.01 0.01 0.00
0.00 0.01 0.01 0.01 0.00 0.01 0.01 0.00 0.00 0.00 0.00 0.01 0.01 0.00 0.00 0.01 0.01 0.02 0.02 0.02 0.01 0.02 0.01 0.00 0.01 0.00 0.00 0.00 0.00 0.00 0.00 0.00 0.00 0.00 0.01 0.00 0.00 0.01 0.01 0.01 0.01 0.01
0.00 0.00 0.01 0.01 0.01 0.01 0.00 0.00 0.01 0.01 0.01 0.02 0.01 0.01 0.01 0.01 0.01 0.01 0.02 0.03 0.02 0.01 0.02 0.01 0.00 0.01 0.00 0.00 0.00 0.00 0.00 0.00 0.00 0.00 0.01 0.00 0.00 0.00 0.00 0.00 0.01 0.02
MSLP
1014.89 1015.53 1016.13 1015.45 1015.41 1015.37 1015.49 1016.05 1016.17 1016.01 1016.25 1015.45 1015.09 1015.01 1015.13 1015.05 1015.13 1015.37 1015.29 1015.25 1015.45 1015.73 1015.89 1016.17 1016.29 1016.41 1016.33 1016.33 1016.45 1016.53 1016.53 1016.49 1016.41 1016.29 1016.49 1016.45 1016.33 1016.29 1016.33 1016.25 1016.29 1016.37
1014.93 1015.77 1015.73 1014.89 1015.09 1014.93 1015.13 1015.45 1015.61 1015.89 1015.97 1015.41 1014.93 1014.73 1014.65 1014.89 1015.09 1015.25 1015.41 1015.45 1015.49 1015.65 1015.65 1015.81 1015.97 1016.09 1016.21 1016.05 1016.09 1016.33 1016.37 1016.29 1016.49 1016.01 1016.33 1016.41 1016.41 1016.09 1016.13 1016.01 1015.97 1015.85
1014.69 1015.17 1015.45 1014.97 1014.81 1014.73 1014.69 1014.85 1015.21 1015.41 1015.41 1015.17 1014.57 1014.65 1014.65 1014.57 1014.85 1014.97 1015.13 1015.29 1015.33 1015.17 1015.33 1015.57 1015.69 1015.81 1015.85 1015.93 1016.09 1016.17 1016.17 1016.33 1016.41 1016.01 1016.13 1016.29 1016.05 1016.05 1015.89 1015.65 1015.61 1015.69
1014.49 1014.97 1015.45 1014.81 1014.45 1014.49 1014.57 1014.81 1014.97 1015.09 1015.33 1015.49 1015.01 1014.73 1014.85 1014.77 1014.85 1014.89 1015.05 1015.37 1015.49 1015.37 1015.29 1015.25 1015.45 1015.37 1015.41 1015.53 1015.81 1015.97 1015.93 1016.05 1015.85 1015.85 1016.05 1015.89 1015.85 1015.77 1015.69 1015.61 1015.53 1015.37
1014.65 1015.01 1015.25 1014.37 1014.09 1014.17 1014.33 1014.57 1014.69 1014.69 1014.85 1014.85 1014.69 1014.61 1014.77 1014.93 1015.05 1015.21 1015.57 1015.69 1015.41 1015.49 1015.29 1015.41 1015.33 1015.37 1015.33 1015.49 1015.57 1015.81 1015.73 1015.81 1015.61 1015.69 1015.97 1016.05 1015.77 1015.73 1015.57 1015.45 1015.65 1015.69
1014.29 1014.77 1014.73 1013.93 1013.85 1014.05 1014.29 1014.37 1014.33 1014.45 1014.57 1014.65 1014.65 1014.49 1014.45 1014.57 1014.73 1015.01 1015.33 1015.85 1015.25 1014.97 1015.01 1014.85 1014.89 1014.85 1015.01 1014.97 1015.29 1015.45 1015.33 1015.33 1015.17 1015.41 1015.77 1015.89 1015.65 1015.21 1015.13 1015.21 1015.41 1015.65
1014.65 1014.53 1013.89 1013.65 1013.69 1013.77 1014.05 1014.17 1014.29 1014.45 1014.53 1014.53 1014.53 1014.65 1014.61 1014.73 1014.85 1014.97 1015.13 1015.37 1015.57 1014.69 1014.61 1014.69 1014.93 1014.97 1014.69 1014.77 1015.09 1015.29 1015.29 1015.37 1015.33 1015.41 1015.61 1015.57 1015.53 1015.41 1014.93 1014.93 1015.13 1015.37
1013.81 1013.29 1013.41 1013.41 1013.61 1013.69 1013.85 1013.97 1014.17 1014.45 1014.45 1014.57 1014.69 1014.61 1014.73 1014.77 1014.89 1014.85 1014.61 1014.81 1014.77 1014.57 1014.61 1014.45 1014.61 1015.29 1015.61 1015.49 1015.41 1014.93 1014.89 1014.69 1014.93 1015.33 1015.57 1015.53 1015.41 1015.53 1015.25 1014.97 1014.93 1015.25
1013.09 1013.21 1013.25 1013.45 1013.69 1013.77 1013.93 1013.97 1014.17 1014.37 1014.29 1014.45 1014.41 1014.49 1014.49 1014.53 1014.45 1014.09 1013.81 1013.93 1014.21 1014.33 1014.45 1014.53 1014.61 1015.33 1015.61 1015.41 1015.25 1015.21 1015.41 1014.97 1014.33 1014.81 1015.13 1015.25 1015.33 1015.29 1015.13 1014.93 1015.05 1015.05
1013.13 1013.13 1013.29 1013.41 1013.65 1013.69 1013.93 1014.05 1014.09 1014.17 1014.21 1014.33 1014.29 1014.25 1014.41 1014.29 1013.93 1013.45 1013.37 1013.81 1014.17 1014.25 1014.33 1014.41 1014.45 1014.53 1014.53 1014.73 1014.93 1015.13 1015.29 1015.09 1014.57 1014.61 1014.65 1014.77 1014.89 1014.81 1014.73 1014.73 1014.77 1014.89
1013.05 1013.05 1013.21 1013.33 1013.53 1013.61 1013.85 1013.97 1014.01 1014.01 1014.09 1014.17 1014.09 1014.13 1014.17 1014.05 1013.85 1013.33 1013.33 1013.61 1013.97 1014.13 1014.17 1014.21 1014.21 1014.33 1014.65 1014.37 1014.57 1014.85 1014.85 1014.77 1014.65 1014.33 1014.33 1014.45 1014.49 1014.53 1014.65 1014.73 1014.73 1014.81
1012.97 1013.09 1013.17 1013.25 1013.33 1013.45 1013.61 1013.73 1013.85 1013.89 1013.97 1013.93 1013.89 1014.05 1014.09 1013.97 1013.77 1013.25 1013.29 1013.57 1013.77 1013.85 1013.77 1013.77 1013.85 1014.01 1014.17 1014.25 1014.21 1014.49 1014.17 1014.53 1014.53 1014.01 1014.09 1014.17 1014.17 1014.17 1014.17 1014.17 1014.29 1014.37
1013.09 1013.05 1013.05 1013.05 1013.13 1013.21 1013.25 1013.37 1013.57 1013.69 1013.81 1013.73 1013.53 1013.73 1014.01 1014.09 1013.57 1013.33 1013.21 1013.45 1013.69 1013.73 1013.73 1013.81 1013.85 1013.93 1014.09 1014.21 1014.13 1013.89 1013.85 1013.89 1013.85 1013.85 1013.97 1013.89 1013.81 1013.89 1013.93 1013.97 1014.01 1014.01
1012.85 1012.77 1012.81 1012.77 1012.77 1012.93 1013.17 1013.17 1013.17 1013.33 1013.53 1013.49 1013.45 1013.73 1013.69 1013.57 1013.45 1013.37 1013.37 1013.41 1013.53 1013.57 1013.65 1013.77 1013.97 1013.97 1014.01 1014.05 1013.97 1013.89 1013.89 1013.77 1013.69 1013.69 1013.65 1013.61 1013.49 1013.49 1013.53 1013.65 1013.81 1013.97
1012.37 1012.45 1012.45 1012.69 1012.89 1012.97 1013.09 1013.17 1013.05 1013.13 1013.25 1013.37 1013.53 1013.61 1013.69 1013.57 1013.45 1013.49 1013.65 1013.65 1013.61 1013.69 1013.65 1013.65 1013.61 1013.57 1013.37 1013.45 1013.81 1014.09 1013.81 1013.77 1013.69 1013.65 1013.69 1013.57 1013.61 1013.41 1013.21 1013.25 1013.49 1013.69
1012.21 1012.33 1012.45 1012.53 1012.85 1012.97 1013.01 1013.09 1013.13 1013.13 1013.25 1013.41 1013.45 1013.45 1013.61 1013.69 1013.73 1013.73 1013.65 1013.65 1013.73 1013.61 1013.53 1013.49 1013.57 1013.33 1013.85 1013.89 1013.89 1014.09 1014.21 1014.25 1014.37 1014.17 1013.97 1013.77 1014.17 1014.09 1013.57 1013.97 1013.57 1013.45
1012.29 1012.41 1012.49 1012.69 1012.73 1012.81 1012.89 1013.05 1013.21 1013.21 1013.41 1013.49 1013.57 1013.61 1013.69 1013.77 1013.73 1013.81 1013.65 1013.53 1013.65 1013.65 1013.61 1013.57 1013.49 1014.17 1014.33 1014.37 1014.41 1014.49 1014.21 1013.93 1014.09 1014.21 1014.21 1013.97 1013.89 1014.01 1014.29 1014.17 1014.21 1013.89
1012.37 1012.49 1012.65 1012.69 1012.73 1012.93 1013.09 1013.21 1013.25 1013.45 1013.69 1013.77 1013.77 1013.89 1013.85 1013.73 1013.93 1013.81 1013.65 1013.49 1013.29 1013.29 1013.37 1013.29 1014.37 1014.89 1014.73 1014.69 1014.77 1014.77 1014.65 1014.33 1013.81 1013.73 1014.13 1014.21 1014.29 1014.29 1014.29 1014.41 1014.17 1013.77
1012.37 1012.57 1012.69 1012.77 1012.85 1013.09 1013.21 1013.33 1013.49 1013.57 1013.61 1013.65 1013.73 1013.61 1013.61 1013.77 1013.81 1013.69 1013.57 1013.45 1013.57 1013.93 1014.09 1013.81 1014.49 1014.89 1014.89 1014.89 1014.85 1014.89 1014.85 1014.53 1013.93 1013.73 1013.65 1013.93 1013.97 1014.05 1014.17 1014.13 1014.01 1013.89
1012.45 1012.57 1012.77 1012.81 1012.85 1012.97 1013.09 1013.33 1013.41 1013.57 1013.53 1013.57 1013.57 1013.65 1013.85 1013.89 1013.73 1013.73 1013.69 1013.85 1013.77 1013.89 1013.89 1014.09 1014.57 1014.97 1015.09 1015.13 1015.05 1014.97 1014.81 1014.61 1014.01 1013.89 1013.73 1013.65 1013.81 1013.77 1013.81 1013.85 1013.89 1014.01
1012.49 1012.61 1012.77 1012.85 1012.89 1012.93 1013.13 1013.33 1013.49 1013.65 1013.81 1013.81 1013.81 1013.89 1014.01 1014.09 1014.01 1013.89 1013.85 1013.89 1013.85 1013.77 1013.73 1014.05 1014.69 1015.29 1015.37 1015.33 1015.21 1015.05 1014.85 1014.57 1013.81 1013.61 1013.73 1013.77 1013.49 1013.33 1013.41 1013.57 1014.01 1014.13
1012.49 1012.65 1012.77 1012.89 1013.05 1013.17 1013.37 1013.57 1013.65 1013.77 1013.93 1013.85 1013.93 1013.89 1013.85 1013.85 1013.93 1014.01 1014.13 1014.13 1014.09 1014.09 1014.09 1014.09 1014.85 1015.33 1015.29 1015.33 1015.33 1015.09 1014.81 1014.17 1013.61 1013.53 1013.57 1013.45 1013.49 1013.53 1013.65 1013.61 1013.45 1013.45
1012.41 1012.61 1012.85 1013.01 1013.13 1013.37 1013.49 1013.61 1013.73 1013.85 1013.85 1013.77 1014.05 1014.09 1014.17 1014.25 1014.25 1014.21 1014.09 1014.21 1014.25 1014.25 1014.33 1014.17 1014.81 1015.33 1015.45 1015.45 1015.29 1015.13 1014.81 1014.05 1013.73 1013.61 1013.57 1013.61 1013.49 1013.37 1013.33 1013.25 1013.21 1013.21
1012.29 1012.45 1012.77 1012.93 1013.13 1013.37 1013.49 1013.53 1013.61 1013.69 1013.89 1013.93 1014.21 1014.13 1014.29 1014.25 1014.37 1014.45 1014.37 1014.29 1014.33 1014.37 1014.25 1014.45 1015.01 1015.41 1015.49 1015.41 1015.41 1015.37 1015.13 1014.57 1014.17 1014.05 1013.97 1013.85 1013.69 1013.53 1013.41 1013.29 1013.21 1013.25
1012.21 1012.37 1012.61 1012.85 1013.05 1013.21 1013.33 1013.61 1013.77 1013.93 1013.93 1013.97 1014.13 1014.13 1014.17 1014.25 1014.25 1014.41 1014.45 1014.29 1014.29 1014.33 1014.65 1014.61 1014.73 1015.13 1015.41 1015.45 1015.57 1015.49 1015.21 1014.69 1014.53 1014.41 1014.45 1014.21 1014.01 1013.85 1013.53 1013.41 1013.21 1013.13
1012.13 1012.45 1012.65 1012.89 1013.17 1013.29 1013.37 1013.57 1013.65 1013.89 1014.05 1014.25 1014.29 1014.13 1014.25 1014.33 1014.45 1014.37 1014.53 1014.45 1014.37 1014.37 1014.41 1014.45 1014.57 1014.69 1015.25 1015.37 1015.33 1015.45 1015.41 1015.01 1014.45 1014.49 1014.49 1014.25 1013.97 1013.85 1013.81 1013.49 1013.29 1013.17
Thickness
5773 5766 5767 5772 5772 5772 5774 5771 5770 5770 5769 5775 5779 5779 5779 5779 5778 5777 5778 5778 5777 5777 5777 5775 5774 5774 5774 5775 5775 5774 5775 5775 5776 5778 5778 5778 5779 5782 5782 5783 5784 5784
5771 5766 5766 5772 5773 5774 5776 5772 5771 5770 5770 5775 5779 5780 5781 5781 5779 5778 5777 5777 5776 5777 5778 5777 5776 5776 5775 5776 5776 5775 5775 5775 5776 5778 5778 5777 5779 5782 5783 5784 5786 5785
5773 5768 5766 5770 5773 5775 5776 5775 5773 5772 5771 5774 5778 5779 5780 5781 5780 5780 5778 5777 5776 5778 5779 5778 5778 5778 5777 5777 5776 5775 5776 5775 5775 5778 5778 5778 5780 5782 5784 5785 5787 5788
5773 5769 5766 5770 5775 5775 5776 5775 5774 5774 5772 5773 5777 5779 5778 5779 5779 5779 5778 5776 5775 5776 5778 5779 5778 5779 5779 5778 5777 5776 5776 5776 5777 5779 5778 5779 5781 5782 5784 5786 5786 5788
5771 5767 5767 5771 5775 5775 5776 5775 5774 5775 5775 5774 5777 5779 5778 5777 5777 5777 5775 5774 5775 5776 5777 5778 5779 5780 5780 5779 5778 5777 5777 5778 5780 5780 5777 5778 5781 5782 5785 5786 5785 5786
5771 5767 5768 5773 5775 5775 5774 5775 5774 5775 5775 5775 5777 5777 5778 5778 5777 5777 5775 5772 5775 5778 5779 5779 5780 5781 5782 5781 5779 5778 5778 5780 5781 5780 5778 5779 5781 5784 5786 5787 5786 5785
5769 5768 5771 5774 5775 5775 5774 5774 5774 5773 5773 5774 5775 5775 5776 5776 5776 5776 5777 5773 5774 5778 5780 5780 5780 5779 5781 5781 5779 5779 5779 5780 5780 5780 5779 5780 5780 5783 5786 5787 5786 5785
5770 5772 5774 5774 5773 5774 5774 5773 5773 5772 5772 5772 5772 5773 5774 5775 5774 5776 5780 5779 5778 5779 5779 5780 5779 5775 5774 5774 5776 5779 5780 5781 5782 5780 5778 5780 5780 5780 5783 5785 5785 5784
5773 5774 5774 5773 5772 5772 5772 5771 5771 5771 5770 5770 5772 5773 5773 5774 5775 5779 5785 5784 5781 5779 5779 5779 5779 5775 5773 5774 5775 5776 5777 5780 5784 5782 5780 5780 5780 5781 5782 5784 5784 5784
5773 5774 5773 5772 5772 5771 5770 5769 5769 5769 5769 5770 5772 5773 5774 5774 5777 5783 5787 5785 5780 5778 5778 5778 5779 5777 5776 5777 5777 5776 5775 5777 5782 5783 5782 5782 5782 5782 5783 5783 5783 5783
5773 5774 5773 5772 5771 5771 5770 5769 5769 5770 5770 5771 5772 5773 5774 5775 5778 5783 5786 5783 5780 5778 5778 5779 5779 5778 5778 5779 5778 5777 5777 5777 5779 5782 5783 5783 5783 5783 5783 5783 5783 5782
5773 5773 5772 5772 5772 5772 5771 5770 5770 5770 5770 5772 5773 5774 5773 5774 5777 5782 5784 5782 5779 5778 5779 5779 5780 5779 5779 5779 5779 5780 5780 5779 5779 5783 5784 5783 5784 5784 5784 5784 5784 5784
5772 5772 5773 5774 5773 5773 5773 5772 5772 5771 5771 5773 5775 5774 5773 5773 5777 5781 5783 5781 5779 5778 5779 5779 5779 5778 5778 5778 5778 5780 5782 5781 5782 5783 5783 5783 5785 5784 5784 5784 5784 5784
5772 5773 5774 5775 5775 5774 5773 5773 5774 5773 5772 5773 5774 5774 5774 5775 5778 5780 5780 5780 5778 5778 5778 5778 5778 5778 5778 5778 5778 5778 5780 5781 5782 5782 5782 5783 5785 5785 5785 5785 5783 5782
5775 5775 5775 5775 5774 5774 5773 5773 5775 5775 5774 5774 5774 5774 5775 5775 5777 5777 5777 5777 5777 5777 5778 5778 5779 5780 5780 5779 5778 5776 5776 5778 5779 5780 5781 5782 5782 5783 5785 5784 5783 5782
5776 5776 5776 5775 5773 5773 5774 5773 5774 5774 5774 5774 5774 5774 5774 5774 5773 5774 5775 5775 5775 5777 5777 5778 5780 5779 5778 5777 5776 5775 5775 5775 5775 5776 5778 5779 5777 5778 5779 5779 5780 5780
5777 5775 5775 5774 5774 5774 5773 5773 5773 5773 5773 5772 5772 5772 5772 5772 5772 5772 5774 5775 5777 5777 5778 5779 5777 5774 5773 5773 5772 5772 5773 5775 5775 5774 5775 5776 5775 5775 5776 5775 5777 5778
5775 5775 5775 5774 5775 5774 5773 5772 5772 5771 5770 5770 5771 5771 5771 5772 5772 5772 5774 5776 5777 5777 5777 5778 5773 5768 5769 5770 5769 5769 5770 5772 5776 5776 5774 5774 5774 5774 5774 5773 5774 5776
5775 5775 5774 5774 5774 5773 5772 5772 5771 5771 5771 5771 5771 5772 5772 5772 5772 5773 5774 5775 5776 5774 5774 5774 5770 5766 5767 5767 5766 5767 5767 5769 5774 5776 5775 5776 5775 5774 5773 5773 5773 5774
5775 5775 5774 5774 5774 5774 5773 5772 5771 5771 5771 5771 5771 5771 5770 5770 5772 5773 5774 5773 5774 5774 5773 5772 5768 5764 5764 5764 5764 5765 5765 5768 5772 5774 5774 5775 5775 5775 5775 5773 5772 5771
5774 5774 5773 5773 5773 5773 5772 5771 5770 5770 5769 5769 5770 5770 5769 5769 5770 5771 5771 5771 5772 5772 5772 5770 5765 5761 5761 5761 5762 5763 5763 5767 5771 5773 5773 5773 5773 5774 5773 5772 5771 5770
5774 5772 5772 5772 5771 5770 5770 5768 5767 5767 5767 5767 5768 5767 5768 5768 5767 5768 5767 5767 5768 5768 5768 5768 5763 5759 5759 5759 5759 5760 5762 5767 5771 5772 5771 5771 5772 5772 5771 5771 5771 5770
5773 5772 5771 5770 5769 5768 5767 5766 5766 5766 5765 5766 5765 5764 5765 5764 5764 5765 5764 5764 5765 5764 5765 5765 5761 5757 5757 5757 5757 5758 5761 5765 5768 5769 5769 5769 5769 5769 5769 5769 5769 5769
5773 5772 5770 5769 5768 5767 5766 5765 5765 5764 5764 5764 5762 5762 5762 5761 5761 5762 5761 5762 5762 5761 5762 5762 5758 5755 5755 5755 5755 5755 5757 5761 5763 5764 5764 5764 5765 5766 5766 5766 5767 5766
5772 5771 5769 5768 5766 5765 5765 5763 5762 5762 5762 5761 5761 5760 5760 5760 5760 5759 5758 5760 5761 5760 5759 5759 5757 5755 5753 5752 5752 5752 5753 5757 5759 5759 5759 5760 5761 5762 5763 5764 5764 5764
5770 5768 5766 5765 5763 5762 5762 5761 5760 5759 5759 5758 5757 5758 5758 5757 5757 5756 5756 5756 5757 5757 5757 5757 5757 5755 5751 5750 5751 5750 5750 5753 5756 5757 5756 5757 5758 5759 5759 5760 5761 5762